Date,TemperatureHighF,TemperatureAvgF,TemperatureLowF,DewpointHighF,DewpointAvgF,DewpointLowF,HumidityHigh,HumidityAvg,HumidityLow,PressureMaxIn,PressureMinIn,WindSpeedMaxMPH,WindSpeedAvgMPH,GustSpeedMaxMPH,PrecipitationSumIn
2013-1-1,30,18,2,19,10,-3,84,73,56,29.35,29.20,17,3,17,0.00
2013-1-2,42,20,1,26,12,-4,83,73,52,29.32,29.17,11,0,11,0.04
2013-1-3,41,25,13,28,18,9,86,75,58,29.47,29.30,11,0,11,0.02
2013-1-4,46,26,9,28,18,5,86,72,48,29.47,29.30,12,1,12,0.00
2013-1-5,46,34,22,33,26,17,83,74,61,29.30,29.13,14,1,14,0.00
2013-1-6,42,28,20,25,19,14,81,70,49,29.45,29.23,12,1,12,0.00
2013-1-7,51,35,22,29,23,16,80,63,42,29.35,29.10,17,1,17,0.00
2013-1-8,56,40,30,34,29,24,79,66,43,29.25,29.02,21,2,21,0.00
2013-1-9,55,38,24,37,28,20,87,71,49,29.48,29.25,9,0,9,0.00
2013-1-10,49,43,38,47,38,28,92,85,62,29.38,28.80,17,2,17,0.41
2013-1-11,59,53,47,48,46,41,93,77,58,28.83,28.65,22,5,22,0.02
2013-1-12,55,30,21,41,18,10,76,61,40,29.16,28.82,28,7,28,0.00
2013-1-13,28,18,11,12,7,2,72,62,50,29.40,29.09,21,4,21,0.00
2013-1-14,33,17,6,14,6,0,81,65,38,29.54,29.39,11,1,16,0.00
2013-1-15,36,19,9,16,8,3,80,64,37,29.45,29.23,7,0,7,0.00
2013-1-16,47,26,10,28,16,4,84,67,40,29.25,29.09,11,1,11,0.00
2013-1-17,49,34,23,29,25,17,86,70,45,29.52,29.25,18,4,18,0.00
2013-1-18,58,41,25,33,28,20,84,62,39,29.47,29.12,21,5,21,0.00
2013-1-19,63,46,35,36,30,25,78,56,33,29.32,29.06,18,1,18,0.00
2013-1-20,39,30,20,27,13,8,65,50,35,29.44,29.32,18,5,18,0.00
2013-1-21,24,18,11,12,6,2,76,59,42,29.49,29.39,19,3,19,0.00
2013-1-22,32,21,12,11,7,2,67,55,41,29.44,29.30,12,2,12,0.00
2013-1-23,51,29,10,28,16,3,76,58,38,29.44,29.21,16,2,16,0.00
2013-1-24,27,22,10,14,7,1,66,54,42,29.52,29.22,18,5,18,0.00
2013-1-25,50,32,18,24,16,8,70,53,36,29.31,29.20,11,0,11,0.00
2013-1-26,59,40,24,29,23,16,74,53,31,29.34,29.14,12,1,12,0.00
2013-1-27,60,50,39,54,43,27,83,77,50,29.15,28.83,16,4,16,0.06
2013-1-28,76,65,57,60,56,52,87,74,52,28.93,28.75,19,5,19,0.00
2013-1-29,67,48,35,60,44,33,91,87,77,28.76,28.49,20,3,20,1.43
2013-1-30,36,28,0,33,22,0,91,80,68,29.04,28.57,27,4,27,0.04
2013-1-31,32,18,6,19,9,-2,84,68,43,29.52,29.00,23,3,23,0.00